• In Netherlands
  • List of Countries
  • For 7 days
  • Water Temperature
  • Satellite Maps
  • Weather Map
  • Weather Widgets
  • user-avatar
    Login

    Hourly Weather Sofia

    Today, 25 February, Saturday

    Time Temperature Precipitation Wind Pressure Humidity
    00:00 +7°C° 0 mm 2 mps 706 mmHg 81%
    01:00 +7°C° 0 mm 2 mps 706 mmHg 81%
    02:00 +7°C° 0 mm 2 mps 706 mmHg 84%
    03:00 +7°C° 0.2 mm 2 mps 706 mmHg 85%
    04:00 +7°C° 0.2 mm 2 mps 707 mmHg 86%
    05:00 +7°C° 0.2 mm 2 mps 707 mmHg 87%
    06:00 +7°C° 0.3 mm 2 mps 708 mmHg 89%
    07:00 +7°C° 0.3 mm 2 mps 709 mmHg 90%
    08:00 +7°C° 0.3 mm 2 mps 709 mmHg 92%
    09:00 +7°C° 0.1 mm 2 mps 710 mmHg 89%
    10:00 +7°C° 0.1 mm 2 mps 711 mmHg 86%
    11:00 +8°C° 0.1 mm 2 mps 711 mmHg 82%
    12:00 +8°C° 0 mm 2 mps 711 mmHg 81%
    13:00 +8°C° 0 mm 2 mps 712 mmHg 80%
    14:00 +7°C° 0 mm 2 mps 712 mmHg 79%
    15:00 +7°C° 0.1 mm 2 mps 712 mmHg 80%
    16:00 +7°C° 0.1 mm 2 mps 713 mmHg 81%
    17:00 +6°C° 0.1 mm 2 mps 713 mmHg 81%
    18:00 +7°C° 0 mm 1 mps 713 mmHg 84%
    19:00 +6°C° 0 mm 1 mps 714 mmHg 87%
    20:00 +5°C° 0 mm 1 mps 714 mmHg 90%
    21:00 +4°C° 0 mm 1 mps 714 mmHg 90%
    22:00 +4°C° 0 mm 1 mps 715 mmHg 91%
    23:00 +4°C° 0 mm 1 mps 715 mmHg 91%

    Tomorrow, 26 February, Sunday

    Time Temperature Precipitation Wind Pressure Humidity
    00:00 +4°C° 0 mm 1 mps 715 mmHg 91%
    01:00 +3°C° 0 mm 1 mps 715 mmHg 91%
    02:00 +3°C° 0 mm 1 mps 715 mmHg 91%
    03:00 +3°C° 0 mm 1 mps 715 mmHg 92%
    04:00 +3°C° 0 mm 1 mps 715 mmHg 93%
    05:00 +3°C° 0 mm 1 mps 715 mmHg 93%
    06:00 +4°C° 0 mm 1 mps 715 mmHg 93%
    07:00 +4°C° 0 mm 1 mps 715 mmHg 92%
    08:00 +4°C° 0 mm 1 mps 715 mmHg 91%
    09:00 +6°C° 0 mm 1 mps 715 mmHg 86%
    10:00 +8°C° 0 mm 1 mps 715 mmHg 81%
    11:00 +9°C° 0 mm 2 mps 715 mmHg 75%
    12:00 +10°C° 0 mm 2 mps 715 mmHg 73%
    13:00 +12°C° 0 mm 2 mps 715 mmHg 71%
    14:00 +13°C° 0 mm 2 mps 714 mmHg 69%
    15:00 +12°C° 0 mm 1 mps 714 mmHg 73%
    16:00 +12°C° 0 mm 1 mps 713 mmHg 76%
    17:00 +11°C° 0 mm 1 mps 713 mmHg 80%
    18:00 +10°C° 0 mm 1 mps 713 mmHg 84%
    19:00 +8°C° 0 mm 1 mps 713 mmHg 89%
    20:00 +6°C° 0 mm 1 mps 712 mmHg 93%
    21:00 +6°C° 0 mm 1 mps 712 mmHg 94%
    22:00 +6°C° 0 mm 1 mps 712 mmHg 94%
    23:00 +5°C° 0 mm 1 mps 712 mmHg 94%

    Day after tomorrow, 27 February, Monday

    Time Temperature Precipitation Wind Pressure Humidity
    00:00 +5°C° 0 mm 1 mps 712 mmHg 94%
    01:00 +5°C° 0 mm 1 mps 712 mmHg 94%
    02:00 +4°C° 0 mm 1 mps 711 mmHg 94%
    03:00 +4°C° 0 mm 1 mps 711 mmHg 94%
    04:00 +4°C° 0 mm 1 mps 711 mmHg 94%
    05:00 +4°C° 0 mm 1 mps 711 mmHg 94%
    06:00 +4°C° 0 mm 1 mps 711 mmHg 94%
    07:00 +5°C° 0 mm 1 mps 711 mmHg 93%
    08:00 +6°C° 0 mm 1 mps 711 mmHg 93%
    09:00 +8°C° 0 mm 1 mps 711 mmHg 83%
    10:00 +11°C° 0 mm 1 mps 712 mmHg 74%
    11:00 +13°C° 0 mm 1 mps 712 mmHg 65%
    12:00 +14°C° 0 mm 1 mps 712 mmHg 63%
    13:00 +15°C° 0 mm 1 mps 711 mmHg 60%
    14:00 +16°C° 0 mm 1 mps 711 mmHg 58%
    15:00 +15°C° 0 mm 1 mps 710 mmHg 62%
    16:00 +14°C° 0 mm 1 mps 710 mmHg 66%
    17:00 +14°C° 0 mm 1 mps 710 mmHg 70%
    18:00 +12°C° 0 mm 1 mps 710 mmHg 76%
    19:00 +10°C° 0 mm 1 mps 710 mmHg 82%
    20:00 +9°C° 0 mm 1 mps 710 mmHg 88%
    21:00 +8°C° 0 mm 1 mps 710 mmHg 90%
    22:00 +8°C° 0 mm 1 mps 710 mmHg 91%
    23:00 +7°C° 0 mm 1 mps 710 mmHg 92%

    28 February, Tuesday

    Time Temperature Precipitation Wind Pressure Humidity
    00:00 +7°C° 0 mm 1 mps 710 mmHg 92%
    01:00 +7°C° 0 mm 1 mps 709 mmHg 92%
    02:00 +6°C° 0 mm 1 mps 709 mmHg 93%
    03:00 +6°C° 0 mm 1 mps 709 mmHg 93%
    04:00 +6°C° 0 mm 1 mps 709 mmHg 93%
    05:00 +5°C° 0 mm 1 mps 708 mmHg 93%
    06:00 +6°C° 0 mm 1 mps 709 mmHg 92%
    07:00 +6°C° 0 mm 1 mps 709 mmHg 91%
    08:00 +6°C° 0 mm 1 mps 709 mmHg 90%
    09:00 +9°C° 0 mm 1 mps 709 mmHg 82%
    10:00 +11°C° 0 mm 1 mps 709 mmHg 74%
    11:00 +14°C° 0 mm 1 mps 709 mmHg 65%
    12:00 +15°C° 0 mm 1 mps 709 mmHg 62%
    13:00 +16°C° 0 mm 2 mps 708 mmHg 59%
    14:00 +16°C° 0 mm 2 mps 708 mmHg 56%
    15:00 +16°C° 0 mm 2 mps 708 mmHg 59%
    16:00 +15°C° 0 mm 1 mps 707 mmHg 63%
    17:00 +15°C° 0 mm 1 mps 707 mmHg 67%
    18:00 +13°C° 0 mm 1 mps 707 mmHg 73%
    19:00 +10°C° 0 mm 2 mps 707 mmHg 80%
    20:00 +8°C° 0 mm 2 mps 706 mmHg 87%
    21:00 +8°C° 0 mm 2 mps 706 mmHg 88%
    22:00 +7°C° 0 mm 2 mps 706 mmHg 88%
    23:00 +7°C° 0 mm 2 mps 706 mmHg 89%

    1 March, Wednesday

    Time Temperature Precipitation Wind Pressure Humidity
    00:00 +7°C° 0 mm 2 mps 706 mmHg 90%
    01:00 +6°C° 0 mm 2 mps 706 mmHg 90%
    02:00 +6°C° 0 mm 2 mps 705 mmHg 91%
    03:00 +6°C° 0 mm 2 mps 705 mmHg 92%
    04:00 +6°C° 0 mm 2 mps 705 mmHg 92%
    05:00 +5°C° 0 mm 2 mps 705 mmHg 93%
    06:00 +6°C° 0 mm 2 mps 705 mmHg 92%
    07:00 +6°C° 0 mm 2 mps 705 mmHg 91%
    08:00 +6°C° 0 mm 2 mps 705 mmHg 90%
    09:00 +8°C° 0 mm 2 mps 705 mmHg 80%
    10:00 +11°C° 0 mm 3 mps 705 mmHg 70%
    11:00 +13°C° 0 mm 3 mps 705 mmHg 60%
    12:00 +13°C° 0.2 mm 4 mps 705 mmHg 60%
    13:00 +13°C° 0.2 mm 4 mps 706 mmHg 59%
    14:00 +14°C° 0.2 mm 5 mps 706 mmHg 59%
    15:00 +10°C° 0.7 mm 5 mps 706 mmHg 66%
    16:00 +7°C° 0.7 mm 5 mps 707 mmHg 72%
    17:00 +5°C° 0.7 mm 4 mps 708 mmHg 79%
    18:00 +4°C° 0.1 mm 4 mps 709 mmHg 81%
    19:00 +3°C° 0.1 mm 3 mps 709 mmHg 83%
    20:00 +2°C° 0.1 mm 3 mps 710 mmHg 85%
    21:00 +2°C° 0 mm 2 mps 711 mmHg 86%
    22:00 +2°C° 0 mm 2 mps 711 mmHg 86%
    23:00 +1°C° 0 mm 2 mps 712 mmHg 87%

    2 March, Thursday

    Time Temperature Precipitation Wind Pressure Humidity
    00:00 +1°C° 0 mm 2 mps 712 mmHg 85%
    01:00 +1°C° 0 mm 2 mps 712 mmHg 84%
    02:00 +2°C° 0 mm 1 mps 712 mmHg 83%
    03:00 +2°C° 0 mm 1 mps 712 mmHg 80%
    04:00 +2°C° 0 mm 1 mps 711 mmHg 77%
    05:00 +2°C° 0 mm 1 mps 711 mmHg 74%
    06:00 +2°C° 0 mm 1 mps 711 mmHg 70%
    07:00 +3°C° 0 mm 1 mps 712 mmHg 65%
    08:00 +4°C° 0 mm 1 mps 712 mmHg 61%
    09:00 +6°C° 0 mm 1 mps 712 mmHg 53%
    10:00 +9°C° 0 mm 1 mps 712 mmHg 45%
    11:00 +12°C° 0 mm 1 mps 712 mmHg 37%
    12:00 +12°C° 0 mm 1 mps 712 mmHg 35%
    13:00 +13°C° 0 mm 1 mps 712 mmHg 34%
    14:00 +14°C° 0 mm 1 mps 712 mmHg 33%
    15:00 +14°C° 0 mm 1 mps 712 mmHg 39%
    16:00 +13°C° 0 mm 1 mps 712 mmHg 44%
    17:00 +12°C° 0 mm 1 mps 712 mmHg 50%
    18:00 +10°C° 0 mm 1 mps 712 mmHg 54%
    19:00 +7°C° 0 mm 1 mps 712 mmHg 58%
    20:00 +5°C° 0 mm 1 mps 713 mmHg 62%
    21:00 +5°C° 0 mm 1 mps 713 mmHg 61%
    22:00 +4°C° 0 mm 1 mps 713 mmHg 61%
    23:00 +4°C° 0 mm 1 mps 713 mmHg 60%
    Show more